Weather History for KFMY - February, 2015

Change the Weather History Date:

Tuesday, February 17, 2015

  Actual Average Record
Temperature  
Mean Temperature 70 °F 67 °F  
Max Temperature 78 °F 78 °F 88 °F (1944)
Min Temperature 62 °F 56 °F 37 °F (1991)
Degree Days  
Heating Degree Days 0 2  
Month to date heating degree days 43 40  
Since 1 July heating degree days 187 241  
Cooling Degree Days 5 4  
Month to date cooling degree days 11 58  
Year to date cooling degree days 111 141  
Growing Degree Days 20 (Base 50)    
Moisture  
Dew Point 62 °F    
Average Humidity 80    
Maximum Humidity 93    
Minimum Humidity 60    
Precipitation  
Precipitation 0.00 in 0.09 in 2.43 in (1931)
Month to date precipitation 0.79 1.26  
Year to date precipitation 1.36 3.20  
Sea Level Pressure  
Sea Level Pressure 29.94 in    
Wind  
Wind Speed 10 mph (SSW)    
Max Wind Speed 21 mph    
Max Gust Speed 31 mph    
Visibility 10 miles    
Events      
T = Trace of Precipitation, MM = Missing Value Source: NWS Daily Summary

Daily Weather History Graph

Daily Weather History Graph

Search for Another Location

Airport or City:

Trip Planner

Search our weather history database for the weather conditions in past years. The results will help you decide how hot, cold, wet, or windy it might be!

Date:

Astronomy

Feb. 17, 2015 Rise Set
Actual Time 7:02 AM EST 6:21 PM EST
Civil Twilight 6:38 AM EST 6:44 PM EST
Nautical Twilight 6:11 AM EST 7:11 PM EST
Astronomical Twilight 5:44 AM EST 7:38 PM EST
Moon 5:40 AM EST (2/17) 5:11 PM EST (2/17)
Length of Visible Light 12h 06m
Length of Day
11h 19m
Waning Crescent, 3% of the Moon is Illuminated
Feb 17
Waning Crescent
Feb 18
New
Feb 25
First Quarter
Mar 5
Full
Mar 13
Last Quarter

Hourly Weather History & Observations

Time (EST) Temp. Dew Point Humidity Pressure Visibility Wind Dir Wind Speed Gust Speed Precip Events Conditions
12:53 AM 63.0 °F 57.0 °F 81% 29.98 in 10.0 mi SSE 8.1 mph - N/A   Clear
1:53 AM 62.1 °F 57.0 °F 84% 29.98 in 10.0 mi SSE 3.5 mph - N/A   Clear
2:53 AM 62.1 °F 57.9 °F 86% 29.94 in 10.0 mi SSE 6.9 mph - N/A   Scattered Clouds
3:53 AM 63.0 °F 59.0 °F 87% 29.93 in 10.0 mi South 4.6 mph - N/A   Mostly Cloudy
4:53 AM 63.0 °F 59.0 °F 87% 29.94 in 10.0 mi South 4.6 mph - N/A   Overcast
5:53 AM 63.0 °F 60.1 °F 90% 29.94 in 10.0 mi Calm Calm - N/A   Mostly Cloudy
6:53 AM 64.0 °F 61.0 °F 90% 29.94 in 10.0 mi South 6.9 mph - N/A   Partly Cloudy
7:53 AM 64.9 °F 63.0 °F 93% 29.95 in 10.0 mi South 8.1 mph - N/A   Clear
8:53 AM 71.1 °F 62.1 °F 73% 29.97 in 10.0 mi SSW 8.1 mph - N/A   Clear
9:53 AM 73.9 °F 61.0 °F 64% 29.98 in 10.0 mi SSW 12.7 mph - N/A   Clear
10:53 AM 75.0 °F 62.1 °F 64% 29.97 in 10.0 mi SSW 12.7 mph 23.0 mph N/A   Clear
11:53 AM 75.9 °F 63.0 °F 64% 29.95 in 10.0 mi SSW 13.8 mph 25.3 mph N/A   Clear
12:53 PM 77.0 °F 63.0 °F 62% 29.92 in 10.0 mi SSW 18.4 mph 26.5 mph N/A   Clear
1:53 PM 77.0 °F 63.0 °F 62% 29.89 in 10.0 mi SSW 18.4 mph 25.3 mph N/A   Clear
2:53 PM 75.0 °F 63.0 °F 66% 29.89 in 10.0 mi SW 10.4 mph 21.9 mph N/A   Scattered Clouds
3:53 PM 75.0 °F 64.9 °F 71% 29.87 in 10.0 mi SW 12.7 mph 25.3 mph N/A   Clear
4:53 PM 73.0 °F 66.0 °F 79% 29.88 in 10.0 mi SW 13.8 mph 25.3 mph N/A   Mostly Cloudy
5:53 PM 72.0 °F 66.9 °F 84% 29.90 in 10.0 mi SW 13.8 mph 20.7 mph N/A   Partly Cloudy
6:53 PM 71.1 °F 68.0 °F 90% 29.91 in 8.0 mi SW 9.2 mph - N/A   Clear
7:53 PM 71.1 °F 68.0 °F 90% 29.91 in 8.0 mi SW 11.5 mph - N/A   Partly Cloudy
8:27 PM 71.1 °F 68.0 °F 90% 29.93 in 7.0 mi WNW 11.5 mph - N/A   Mostly Cloudy
8:53 PM 66.0 °F 62.1 °F 87% 29.96 in 10.0 mi North 13.8 mph - N/A   Overcast
9:45 PM 64.9 °F 59.0 °F 81% 29.95 in 10.0 mi North 10.4 mph - N/A   Overcast
9:53 PM 64.0 °F 59.0 °F 84% 29.96 in 10.0 mi North 12.7 mph - N/A   Overcast
10:37 PM 64.0 °F 59.0 °F 84% 29.96 in 10.0 mi NNE 6.9 mph - N/A   Overcast
10:53 PM 64.0 °F 57.9 °F 80% 29.97 in 10.0 mi North 5.8 mph - N/A   Overcast
11:17 PM 64.0 °F 57.9 °F 80% 29.96 in 10.0 mi North 4.6 mph - N/A   Overcast
11:53 PM 64.0 °F 57.9 °F 80% 29.96 in 10.0 mi North 3.5 mph - N/A   Overcast